[[{"header":{"parameterUnit":"m.s-1","parameterCategory":2,"la1":30.2991,"la2":30.254,"lo1":-89.0895,"lo2":-89.0444,"dy":0.0017,"dx":0.0017,"nx":28,"ny":28,"refTime":"2025-01-24T09:00:00:Z","depth":"0","parameterNumber":2,"parameterNumberName":"U-component_of_CURRENTS"},"data":[0,0,0,0,0,0,0,0,0,0,0,0,0,0,0,0,0,0,0,0,0,0,0,0,0,0,0,0,0,0,0,0,0,0,0,0,0,0,0,0,0,0,0,0,0,0,0,0,0,0,0,0,0,0,0,0,0,0,0.1459,0.1459,0,0.1489,0.1489,0.1489,0.149,0.149,0.1489,0.1489,0.1469,0.1469,0.1468,0,0,0,0,0,0,0,0,0,0,0,0,0,0.1395,0.1396,0.1459,0.1459,0.146,0.1489,0.1489,0.1489,0.149,0.149,0.1489,0.1489,0.1469,0.1469,0.1468,0,0,0,0,0,0,0,0,0,0,0,0,0,0.1422,0.1397,0.1458,0.1465,0.1466,0.1489,0.1489,0.1489,0.149,0.149,0.1489,0.1489,0.1469,0.1469,0.1468,0.147,0,0,0.1467,0.1466,0,0,0,0,0,0,0,0,0.142,0.1424,0.1464,0.1465,0.1466,0.1487,0.1459,0.1481,0.149,0.1479,0.1489,0.1489,0.1472,0.1471,0.1475,0.147,0.1469,0.1467,0.1466,0.1466,0.1466,0,0,0,0,0,0,0,0.1418,0.1423,0.1468,0.1464,0.1466,0.1464,0.1468,0.1463,0.1474,0.148,0.148,0.1487,0.1472,0.1476,0.1475,0.1468,0.1467,0.1466,0.1466,0.1466,0.149,0.1491,0,0,0,0,0,0,0.142,0.1421,0.1467,0.1469,0.1444,0.1466,0.147,0.1479,0.1475,0.1475,0.1487,0.1487,0.1477,0.1475,0.1474,0.1501,0.1466,0.1466,0.1465,0.1489,0.149,0.1491,0,0,0,0,0,0,0.1418,0.1424,0.1466,0.1447,0.1453,0.1468,0.1478,0.148,0.1487,0.1482,0.1481,0.1494,0.1477,0.1475,0.148,0.15,0.1465,0.1465,0.1488,0.1489,0.149,0.154,0,0,0,0,0,0,0.1416,0.1423,0.1429,0.1447,0.1454,0.1485,0.1478,0.148,0.1493,0.1493,0.1487,0.1485,0.1476,0.1481,0.148,0.1498,0.1464,0.1486,0.1488,0.149,0.1537,0.1543,0.1548,0,0,0,0,0,0.1414,0.1421,0.1429,0.1435,0.1462,0.1485,0.1488,0.1496,0.1493,0.1501,0.15,0.1485,0.1492,0.1482,0.148,0.1498,0.1485,0.1488,0.149,0.1535,0.1542,0.1548,0,0,0,0,0,0,0.1393,0.1423,0.1431,0.1447,0.1468,0.1486,0.1493,0.15,0.1506,0.1504,0.1495,0.1493,0.1506,0.1495,0.1485,0.1511,0.1487,0.1489,0.1522,0.1528,0.1534,0.1537,0.1464,0,0,0,0,0,0.1393,0.1408,0.1437,0.1448,0.1461,0.1478,0.1488,0.1497,0.1507,0.1509,0.1507,0.1507,0.1514,0.1515,0.1515,0.1527,0.1547,0.1539,0.1544,0.1549,0.1551,0.1592,0.1602,0.1498,0.1498,0.1498,0,0,0.1385,0.1406,0.1412,0.1445,0.1461,0.1481,0.1483,0.1502,0.1518,0.1505,0.152,0.1523,0.1521,0.1539,0.1544,0.1532,0.1596,0.1552,0.1556,0.1555,0.1595,0.1606,0.1615,0.15,0.1499,0.1499,0,0,0.1381,0.14,0.1413,0.1436,0.1468,0.1482,0.149,0.1515,0.1526,0.1543,0.1544,0.1562,0.1561,0.1575,0.1579,0.1614,0.1623,0.1612,0.1643,0.1683,0.1692,0.17,0.1773,0.1787,0.1616,0.1616,0.1616,0,0.1369,0.1395,0.142,0.1443,0.146,0.1484,0.1503,0.1522,0.1544,0.1556,0.155,0.158,0.1581,0.1615,0.1633,0.1627,0.166,0.1618,0.1691,0.1699,0.1706,0.1779,0.1794,0.1618,0.1618,0.1618,0.1617,0,0.1381,0.1402,0.1413,0.1451,0.1473,0.1493,0.1527,0.1547,0.1561,0.1577,0.1612,0.1626,0.1643,0.1655,0.1654,0.171,0.1723,0.1694,0.1676,0.172,0.1794,0.1809,0.1622,0.1621,0.162,0.162,0,0,0.1343,0.1408,0.1409,0.143,0.148,0.1495,0.1532,0.1569,0.1596,0.1619,0.1664,0.1683,0.1695,0.1702,0.1714,0.1755,0.1852,0.1751,0.1752,0.1827,0.1974,0.2051,0.2075,0.1835,0.1837,0.1839,0.2018,0,0.1342,0.1386,0.1417,0.1448,0.1474,0.151,0.1537,0.1574,0.1614,0.1666,0.1698,0.1741,0.1712,0.1743,0.1774,0.1839,0.1887,0.1808,0.1917,0.1921,0.1985,0.2092,0.2137,0.2305,0.2033,0.2035,0.2037,0,0.1339,0.1374,0.1409,0.1455,0.1466,0.1483,0.154,0.1573,0.1651,0.1688,0.174,0.1776,0.1857,0.1824,0.1938,0.1891,0.1933,0.1975,0.1982,0.2042,0.2024,0.2209,0.2342,0.2319,0.2059,0.2057,0.2056,0,0.1308,0.1359,0.1386,0.1404,0.1463,0.1476,0.1504,0.1571,0.1613,0.1725,0.1783,0.1854,0.1926,0.1975,0.2066,0.2008,0.2212,0.2136,0.2243,0.225,0.2304,0.2312,0.2426,0.2207,0.2207,0.2207,0.2206,0,0.1296,0.1313,0.137,0.1386,0.1403,0.1454,0.1487,0.1539,0.1635,0.1696,0.1789,0.1875,0.1965,0.2087,0.2125,0.2271,0.2257,0.2288,0.231,0.2327,0.2334,0.2326,0.2278,0.2213,0.2212,0.221,0.2209,0,0.1258,0.1299,0.1329,0.1382,0.1392,0.1406,0.1469,0.1504,0.1607,0.1711,0.1758,0.1928,0.21,0.2214,0.2355,0.2375,0.2463,0.2528,0.2571,0.2595,0.2634,0.2588,0.2624,0.2499,0.2671,0.2674,0.2677,0,0.1243,0.126,0.131,0.1318,0.1338,0.1367,0.1384,0.1477,0.1535,0.1733,0.1789,0.2012,0.2159,0.2448,0.2582,0.2739,0.2598,0.2832,0.2708,0.2691,0.2654,0.2501,0.2377,0.2816,0.2819,0.2822,0.2824,0,0.1209,0.1227,0.1249,0.127,0.1285,0.1309,0.1356,0.1392,0.1517,0.1629,0.1808,0.1959,0.231,0.2536,0.2793,0.2875,0.275,0.2894,0.2858,0.2784,0.2642,0.2515,0.2656,0.285,0.2848,0.2846,0.2844,0.2843,0.1168,0.1178,0.1201,0.1217,0.1229,0.124,0.1221,0.1302,0.1383,0.1535,0.1744,0.1985,0.2437,0.2824,0.2885,0.3108,0.2917,0.3075,0.3029,0.2882,0.273,0.2953,0.3168,0.3167,0.3167,0.3166,0.3166,0,0.1122,0.1138,0.1147,0.1152,0.1124,0.116,0.1187,0.1171,0.1221,0.1476,0.1647,0.2177,0.254,0.2879,0.3279,0.3258,0.3056,0.3212,0.2997,0.2859,0.3095,0.3069,0.3293,0.3293,0.3293,0.3293,0.3293,0.3293,0.11,0.1098,0.1117,0.105,0.1035,0.0964,0.0951,0.0973,0.1116,0.1397,0.1713,0.2015,0.2639,0.3259,0.3482,0.3411,0.3091,0.309,0.2892,0.3098,0.3079,0.306,0.3027,0.3238,0.3238,0.2579,0.2575,0.2572]},{"header":{"parameterUnit":"m.s-1","parameterCategory":2,"la1":30.2991,"la2":30.254,"lo1":-89.0895,"lo2":-89.0444,"dy":0.0017,"dx":0.0017,"nx":28,"ny":28,"refTime":"2025-01-24T09:00:00:Z","depth":"0","parameterNumber":3,"parameterNumberName":"V-component_of_CURRENTS"},"data":[0,0,0,0,0,0,0,0,0,0,0,0,0,0,0,0,0,0,0,0,0,0,0,0,0,0,0,0,0,0,0,0,0,0,0,0,0,0,0,0,0,0,0,0,0,0,0,0,0,0,0,0,0,0,0,0,0,0,-0.0264,-0.0265,0,-0.0334,-0.0334,-0.0335,-0.0393,-0.0393,-0.0394,-0.0394,-0.0493,-0.0495,-0.0497,0,0,0,0,0,0,0,0,0,0,0,0,0,-0.0215,-0.0215,-0.0264,-0.0265,-0.0266,-0.0333,-0.0335,-0.0336,-0.0393,-0.0393,-0.0394,-0.0395,-0.0493,-0.0495,-0.0498,0,0,0,0,0,0,0,0,0,0,0,0,0,-0.0256,-0.0215,-0.0264,-0.0302,-0.0306,-0.0333,-0.0335,-0.0336,-0.0393,-0.0393,-0.0394,-0.0395,-0.0492,-0.0495,-0.0498,-0.0502,0,0,-0.0508,-0.0509,0,0,0,0,0,0,0,0,-0.0254,-0.0258,-0.0295,-0.0299,-0.0304,-0.0355,-0.0354,-0.0393,-0.0392,-0.0361,-0.0394,-0.0395,-0.0448,-0.0455,-0.0467,-0.0507,-0.0511,-0.0508,-0.051,-0.0511,-0.0512,0,0,0,0,0,0,0,-0.0251,-0.0256,-0.0293,-0.0296,-0.0301,-0.0327,-0.0333,-0.0361,-0.04,-0.0363,-0.0367,-0.0373,-0.0451,-0.0464,-0.047,-0.0513,-0.0508,-0.0511,-0.0513,-0.0514,-0.0558,-0.0558,0,0,0,0,0,0,-0.0238,-0.0253,-0.029,-0.0295,-0.0279,-0.0327,-0.0334,-0.0338,-0.04,-0.0409,-0.0373,-0.0376,-0.0458,-0.0466,-0.0474,-0.0464,-0.0511,-0.0514,-0.0516,-0.0559,-0.0558,-0.0557,0,0,0,0,0,0,-0.0236,-0.024,-0.0287,-0.0275,-0.0282,-0.0326,-0.0331,-0.0339,-0.0351,-0.0406,-0.0417,-0.0376,-0.0459,-0.0469,-0.0492,-0.0469,-0.0516,-0.0519,-0.056,-0.0559,-0.0558,-0.0455,0,0,0,0,0,0,-0.0235,-0.0239,-0.0236,-0.0274,-0.0283,-0.029,-0.033,-0.034,-0.0353,-0.0358,-0.0413,-0.0423,-0.0461,-0.0487,-0.0495,-0.0474,-0.0521,-0.0561,-0.0559,-0.0558,-0.046,-0.0451,-0.0443,0,0,0,0,0,-0.0232,-0.0217,-0.0235,-0.0239,-0.0277,-0.0289,-0.0295,-0.033,-0.0352,-0.0347,-0.0387,-0.0421,-0.0484,-0.0489,-0.0499,-0.0478,-0.0562,-0.056,-0.0558,-0.0463,-0.0452,-0.0443,0,0,0,0,0,0,-0.019,-0.0222,-0.0243,-0.0238,-0.0257,-0.0298,-0.0296,-0.0322,-0.035,-0.0357,-0.0413,-0.0425,-0.0437,-0.0472,-0.0476,-0.0487,-0.0528,-0.0528,-0.0452,-0.0442,-0.0434,-0.0424,-0.0524,0,0,0,0,0,-0.0179,-0.0179,-0.0213,-0.0208,-0.0215,-0.0255,-0.0265,-0.0288,-0.0319,-0.0332,-0.037,-0.041,-0.0437,-0.0451,-0.0484,-0.0487,-0.0522,-0.0481,-0.0473,-0.0465,-0.0465,-0.0512,-0.0508,-0.0552,-0.0552,-0.0552,0,0,-0.0162,-0.0179,-0.0179,-0.0199,-0.022,-0.0215,-0.0263,-0.0269,-0.0265,-0.0338,-0.0343,-0.0384,-0.0434,-0.044,-0.0448,-0.0465,-0.0463,-0.0463,-0.0456,-0.046,-0.051,-0.0505,-0.0502,-0.0551,-0.0551,-0.0551,0,0,-0.012,-0.0141,-0.0126,-0.0136,-0.0158,-0.018,-0.0177,-0.0212,-0.0227,-0.0238,-0.0289,-0.0314,-0.0356,-0.0384,-0.0404,-0.037,-0.0422,-0.0379,-0.0326,-0.037,-0.0367,-0.0365,-0.0367,-0.0366,-0.0371,-0.0371,-0.0371,0,-0.0097,-0.0093,-0.0121,-0.0108,-0.0116,-0.0158,-0.0145,-0.0156,-0.0192,-0.0204,-0.0225,-0.029,-0.0327,-0.034,-0.0328,-0.035,-0.0376,-0.0355,-0.0359,-0.0358,-0.0358,-0.0361,-0.0361,-0.0366,-0.0366,-0.0367,-0.0367,0,-0.0049,-0.0047,-0.0036,-0.0038,-0.0042,-0.0038,-0.0059,-0.0064,-0.0091,-0.0114,-0.0136,-0.0189,-0.0229,-0.0238,-0.0272,-0.0281,-0.0298,-0.0345,-0.0381,-0.0347,-0.0352,-0.0354,-0.0358,-0.036,-0.0362,-0.0363,0,0,-0.0003,-0.0004,-0.0002,-0.0004,-0.0012,-0.0014,0.0004,-0.0007,0.0016,-0.0033,-0.0012,-0.0078,-0.0116,-0.0142,-0.0187,-0.022,-0.0223,-0.0273,-0.0277,-0.0267,-0.0294,-0.0225,-0.0222,-0.0277,-0.0278,-0.0279,-0.0285,0,0.0036,0.006,0.0055,0.0078,0.0081,0.0057,0.0084,0.0073,0.0071,0.0092,0.0023,0.0039,-0.0074,-0.0059,-0.013,-0.0185,-0.023,-0.0215,-0.0336,-0.0338,-0.0277,-0.0223,-0.0202,-0.02,-0.0287,-0.0287,-0.0288,0,0.0076,0.008,0.0105,0.0113,0.0117,0.0136,0.0156,0.0181,0.02,0.0216,0.0188,0.0158,0.012,0.0034,-0.0107,-0.0094,-0.0196,-0.0256,-0.0259,-0.0238,-0.0275,-0.0258,-0.0202,-0.0457,-0.0292,-0.0291,-0.0291,0,0.009,0.0111,0.0123,0.0126,0.0142,0.0154,0.0173,0.0203,0.0294,0.0321,0.0424,0.0293,0.0337,0.0139,0.0012,-0.0052,-0.0114,-0.0221,-0.0266,-0.0262,-0.0288,-0.0284,-0.049,-0.0341,-0.0341,-0.0341,-0.0341,0,0.0115,0.0125,0.013,0.0136,0.0175,0.018,0.028,0.0287,0.0423,0.0588,0.0498,0.0627,0.0369,0.0313,0.0086,-0.0052,-0.0071,-0.0237,-0.0259,-0.0245,-0.0237,-0.0498,-0.063,-0.0341,-0.0341,-0.0341,-0.0341,0,0.0128,0.0129,0.0145,0.0163,0.0181,0.021,0.039,0.0532,0.0611,0.0844,0.0895,0.092,0.0842,0.0597,0.0358,0.0136,-0.0176,-0.0111,-0.0043,-0.0057,-0.0376,-0.0499,-0.068,-0.0798,-0.0193,-0.0191,-0.019,0,0.0136,0.0143,0.0168,0.0221,0.0235,0.0327,0.0475,0.0604,0.0819,0.1048,0.1215,0.1221,0.1261,0.0954,0.0563,0.0205,-0.007,0.0002,-0.0142,-0.0364,-0.0522,-0.0623,-0.072,-0.0131,-0.0129,-0.0128,-0.0127,0,0.0163,0.0168,0.0192,0.0318,0.0446,0.0639,0.0851,0.104,0.1273,0.1444,0.1686,0.1719,0.1474,0.1151,0.0706,0.0424,-0.0162,0.0022,-0.0258,-0.0514,-0.0593,-0.0724,-0.0132,-0.0114,-0.0115,-0.0116,-0.0117,-0.0117,0.0208,0.0258,0.0349,0.0481,0.065,0.0986,0.1173,0.1432,0.1737,0.2005,0.2012,0.2062,0.1609,0.0999,0.0646,-0.0026,-0.0078,-0.0298,-0.0431,-0.0515,-0.0633,0.0032,0.0055,0.0055,0.0055,0.0055,0.0054,0,0.0375,0.0458,0.0557,0.0794,0.1071,0.1122,0.1495,0.1704,0.2023,0.2168,0.2291,0.2084,0.1503,0.089,0.0031,-0.042,-0.0649,-0.0704,-0.0916,-0.1001,-0.0457,-0.0462,-0.0489,-0.0489,-0.0488,-0.0488,-0.0488,-0.0488,0.0491,0.0679,0.0762,0.1201,0.1368,0.1765,0.1975,0.2149,0.227,0.2382,0.2358,0.2333,0.1865,0.0355,-0.0712,-0.095,-0.1351,-0.1365,-0.1584,-0.1296,-0.1272,-0.1249,-0.129,-0.149,-0.1491,-0.2099,-0.2105,-0.211]}],[{"header":{"parameterUnit":"m.s-1","parameterCategory":2,"la1":30.2991,"la2":30.254,"lo1":-89.0895,"lo2":-89.0444,"dy":0.0017,"dx":0.0017,"nx":28,"ny":28,"refTime":"2025-01-24T09:00:00:Z","depth":"2","parameterNumber":2,"parameterNumberName":"U-component_of_CURRENTS"},"data":[0,0,0,0,0,0,0,0,0,0,0,0,0,0,0,0,0,0,0,0,0,0,0,0,0,0,0,0,0,0,0,0,0,0,0,0,0,0,0,0,0,0,0,0,0,0,0,0,0,0,0,0,0,0,0,0,0,0,0.1599,0.1599,0,0.1638,0.1639,0.1639,0.1653,0.1653,0.1653,0.1653,0.1646,0.1646,0.1646,0,0,0,0,0,0,0,0,0,0,0,0,0,0.1537,0.1538,0.1599,0.1599,0.16,0.1638,0.1639,0.1639,0.1653,0.1653,0.1653,0.1653,0.1647,0.1646,0.1646,0,0,0,0,0,0,0,0,0,0,0,0,0,0.1568,0.1538,0.1599,0.1613,0.1614,0.1638,0.1639,0.1639,0.1653,0.1653,0.1653,0.1653,0.1647,0.1646,0.1646,0.1645,0,0,0.1646,0.1645,0,0,0,0,0,0,0,0,0.1566,0.157,0.161,0.1612,0.1614,0.1642,0.1615,0.164,0.1653,0.1637,0.1653,0.1653,0.1642,0.1642,0.1648,0.1645,0.1645,0.1645,0.1645,0.1645,0.1645,0,0,0,0,0,0,0,0.1564,0.1568,0.1613,0.1611,0.1613,0.1618,0.1622,0.162,0.1637,0.1638,0.1639,0.1646,0.1642,0.1648,0.1648,0.1645,0.1645,0.1645,0.1645,0.1645,0.1676,0.1677,0,0,0,0,0,0,0.1562,0.1566,0.1612,0.1614,0.1591,0.1619,0.1623,0.1632,0.1638,0.164,0.1646,0.1647,0.1649,0.1648,0.1648,0.1678,0.1645,0.1645,0.1645,0.1675,0.1676,0.1677,0,0,0,0,0,0,0.156,0.1566,0.161,0.1592,0.1598,0.162,0.1629,0.1632,0.1646,0.1645,0.1645,0.1658,0.1649,0.1648,0.1659,0.1677,0.1645,0.1645,0.1674,0.1675,0.1677,0.1719,0,0,0,0,0,0,0.1558,0.1565,0.1574,0.1592,0.1599,0.1635,0.1629,0.1633,0.1651,0.1652,0.1655,0.1654,0.1648,0.166,0.1659,0.1676,0.1645,0.1673,0.1674,0.1676,0.1716,0.1721,0.1726,0,0,0,0,0,0.1556,0.1568,0.1574,0.158,0.161,0.1636,0.164,0.1654,0.1651,0.1664,0.1667,0.1654,0.1671,0.1661,0.166,0.1676,0.1672,0.1674,0.1676,0.1714,0.172,0.1726,0,0,0,0,0,0,0.1543,0.1572,0.1578,0.1598,0.162,0.1639,0.1651,0.1659,0.1671,0.1671,0.1664,0.1664,0.1684,0.1674,0.1662,0.1691,0.167,0.1672,0.1699,0.1705,0.171,0.1713,0.1644,0,0,0,0,0,0.1545,0.1561,0.1589,0.1603,0.1617,0.1634,0.1647,0.1658,0.1671,0.1677,0.1677,0.168,0.1691,0.1692,0.1698,0.1709,0.1727,0.172,0.1725,0.1729,0.1732,0.1771,0.178,0.1684,0.1684,0.1684,0,0,0.1539,0.156,0.1567,0.1601,0.1617,0.1639,0.1642,0.1666,0.168,0.1672,0.1689,0.1698,0.1699,0.1719,0.1725,0.1711,0.1772,0.1732,0.1735,0.1736,0.1774,0.1784,0.1792,0.1686,0.1685,0.1685,0,0,0.1539,0.156,0.1576,0.1599,0.1632,0.1647,0.1656,0.1682,0.1693,0.1713,0.1715,0.1736,0.1742,0.1752,0.1757,0.179,0.18,0.1792,0.1815,0.1854,0.1862,0.1869,0.1932,0.1945,0.179,0.1791,0.1791,0,0.1531,0.1558,0.1584,0.1608,0.1625,0.1651,0.167,0.1688,0.1712,0.1728,0.1723,0.1765,0.1759,0.1795,0.1805,0.1801,0.1834,0.1792,0.1861,0.1868,0.1875,0.1937,0.1951,0.1793,0.1793,0.1792,0.1792,0,0.1546,0.1569,0.1581,0.1619,0.1642,0.1664,0.1694,0.1717,0.1731,0.1754,0.1797,0.1806,0.1835,0.1836,0.1827,0.1876,0.1891,0.1867,0.1846,0.1887,0.1951,0.1964,0.1796,0.1795,0.1795,0.1794,0,0,0.1513,0.1578,0.158,0.1604,0.165,0.1671,0.17,0.1742,0.1777,0.1803,0.1852,0.1867,0.1891,0.1897,0.1901,0.1923,0.2001,0.1915,0.1916,0.1979,0.2116,0.2089,0.2101,0.1992,0.1994,0.1996,0.2151,0,0.1513,0.1557,0.1589,0.1625,0.1651,0.1688,0.1719,0.1762,0.1802,0.1858,0.1885,0.1933,0.191,0.1938,0.196,0.1992,0.2033,0.1963,0.2064,0.2068,0.2039,0.2113,0.1939,0.2058,0.2164,0.2166,0.2167,0,0.1513,0.1545,0.158,0.1642,0.1657,0.1681,0.1747,0.1782,0.1864,0.1902,0.1962,0.1998,0.2054,0.202,0.211,0.2071,0.21,0.2117,0.2123,0.2088,0.2064,0.2029,0.2078,0.2189,0.2188,0.2186,0.2184,0,0.1478,0.1536,0.1563,0.1582,0.1655,0.1677,0.1716,0.1793,0.1846,0.1939,0.2006,0.2072,0.2131,0.2165,0.2213,0.217,0.2317,0.226,0.2273,0.2273,0.2138,0.2122,0.2328,0.2328,0.2328,0.2327,0.2327,0,0.1467,0.1487,0.155,0.1566,0.1606,0.1662,0.1724,0.1776,0.1882,0.197,0.2032,0.2122,0.2169,0.226,0.2269,0.2335,0.2373,0.2302,0.2312,0.2151,0.2135,0.2241,0.2229,0.2333,0.2332,0.2331,0.233,0,0.1425,0.1467,0.1502,0.157,0.1592,0.1619,0.1723,0.179,0.1884,0.2007,0.2047,0.2189,0.2298,0.2359,0.2442,0.2422,0.2468,0.2481,0.2305,0.229,0.2385,0.2373,0.2503,0.2503,0.2504,0.2504,0.2504,0,0.1408,0.1422,0.1487,0.1517,0.1547,0.1604,0.1664,0.177,0.1854,0.205,0.212,0.2272,0.2349,0.2482,0.2486,0.2528,0.2538,0.2389,0.2249,0.2407,0.2405,0.2392,0.238,0.2107,0.2104,0.2102,0.21,0,0.1373,0.1395,0.1429,0.1497,0.1552,0.162,0.1712,0.1772,0.1924,0.1999,0.2135,0.2204,0.2361,0.2325,0.2407,0.2394,0.2356,0.2339,0.2572,0.2079,0.2043,0.2037,0.2037,0.2078,0.208,0.2081,0.2083,0.2083,0.1343,0.1366,0.1427,0.1492,0.1558,0.1647,0.1675,0.1755,0.1836,0.1927,0.2056,0.2083,0.2161,0.2168,0.2151,0.2153,0.2282,0.217,0.2174,0.2181,0.2097,0.2062,0.2087,0.2089,0.2091,0.2092,0.2094,0,0.134,0.1387,0.1435,0.1523,0.1596,0.1644,0.1725,0.1703,0.1719,0.181,0.1838,0.1743,0.1766,0.1858,0.1831,0.1855,0.1791,0.1783,0.1678,0.1704,0.1727,0.1613,0.1478,0.1475,0.1473,0.1471,0,0,0.1347,0.1402,0.1443,0.1554,0.1618,0.166,0.1685,0.1576,0.1574,0.151,0.1509,0.1642,0.1787,0.1582,0.1594,0.1533,0.159,0.1478,0.198,0.1882,0.19,0.1973,0.1831,0,0,0,0,0]},{"header":{"parameterUnit":"m.s-1","parameterCategory":2,"la1":30.2991,"la2":30.254,"lo1":-89.0895,"lo2":-89.0444,"dy":0.0017,"dx":0.0017,"nx":28,"ny":28,"refTime":"2025-01-24T09:00:00:Z","depth":"2","parameterNumber":3,"parameterNumberName":"V-component_of_CURRENTS"},"data":[0,0,0,0,0,0,0,0,0,0,0,0,0,0,0,0,0,0,0,0,0,0,0,0,0,0,0,0,0,0,0,0,0,0,0,0,0,0,0,0,0,0,0,0,0,0,0,0,0,0,0,0,0,0,0,0,0,0,-0.0252,-0.0253,0,-0.0316,-0.0317,-0.0318,-0.0374,-0.0374,-0.0375,-0.0375,-0.0465,-0.0467,-0.0469,0,0,0,0,0,0,0,0,0,0,0,0,0,-0.0207,-0.0207,-0.0252,-0.0253,-0.0254,-0.0316,-0.0317,-0.0318,-0.0373,-0.0374,-0.0375,-0.0376,-0.0464,-0.0466,-0.0469,0,0,0,0,0,0,0,0,0,0,0,0,0,-0.0245,-0.0207,-0.0252,-0.0288,-0.0292,-0.0316,-0.0317,-0.0318,-0.0373,-0.0374,-0.0375,-0.0376,-0.0464,-0.0466,-0.0469,-0.0469,0,0,-0.0478,-0.0479,0,0,0,0,0,0,0,0,-0.0242,-0.0246,-0.0282,-0.0286,-0.029,-0.0337,-0.0334,-0.037,-0.0373,-0.0343,-0.0375,-0.0376,-0.0424,-0.043,-0.044,-0.0473,-0.0477,-0.0478,-0.0479,-0.0481,-0.0481,0,0,0,0,0,0,0,-0.024,-0.0244,-0.0278,-0.0283,-0.0288,-0.0311,-0.0318,-0.0341,-0.0379,-0.0346,-0.035,-0.0356,-0.0426,-0.0437,-0.0443,-0.0478,-0.0478,-0.048,-0.0482,-0.0483,-0.0538,-0.0538,0,0,0,0,0,0,-0.0228,-0.0241,-0.0276,-0.028,-0.0267,-0.0311,-0.0318,-0.0322,-0.0378,-0.0387,-0.0355,-0.0358,-0.0432,-0.044,-0.0446,-0.0452,-0.0481,-0.0483,-0.0485,-0.0538,-0.0538,-0.0538,0,0,0,0,0,0,-0.0227,-0.023,-0.0274,-0.0262,-0.0269,-0.0311,-0.0315,-0.0323,-0.0338,-0.0385,-0.0394,-0.0363,-0.0433,-0.0442,-0.047,-0.0456,-0.0484,-0.0487,-0.0538,-0.0538,-0.0538,-0.0462,0,0,0,0,0,0,-0.0225,-0.0229,-0.0229,-0.0261,-0.0269,-0.0283,-0.0314,-0.0323,-0.034,-0.0345,-0.0394,-0.0403,-0.0435,-0.0466,-0.0473,-0.046,-0.0489,-0.0539,-0.0538,-0.0538,-0.0465,-0.046,-0.0455,0,0,0,0,0,-0.0223,-0.0215,-0.0229,-0.0233,-0.0267,-0.0283,-0.0289,-0.0323,-0.0339,-0.0341,-0.0377,-0.0402,-0.0468,-0.0468,-0.0476,-0.0464,-0.0539,-0.0538,-0.0538,-0.0467,-0.0461,-0.0455,0,0,0,0,0,0,-0.0193,-0.022,-0.0236,-0.0237,-0.0257,-0.0292,-0.0295,-0.0318,-0.0347,-0.0352,-0.0399,-0.0411,-0.043,-0.0459,-0.0457,-0.0481,-0.0507,-0.0509,-0.0451,-0.0445,-0.044,-0.0429,-0.0491,0,0,0,0,0,-0.0185,-0.0187,-0.0217,-0.0216,-0.0224,-0.0259,-0.027,-0.0291,-0.032,-0.0334,-0.0368,-0.0404,-0.0433,-0.0448,-0.0479,-0.0489,-0.0531,-0.0488,-0.0483,-0.0478,-0.0476,-0.0524,-0.0523,-0.0536,-0.0536,-0.0536,0,0,-0.0172,-0.0187,-0.0189,-0.021,-0.0228,-0.0229,-0.0268,-0.0277,-0.028,-0.0338,-0.0351,-0.0387,-0.0433,-0.0447,-0.0458,-0.047,-0.0498,-0.0477,-0.0473,-0.0474,-0.0523,-0.0522,-0.0521,-0.0536,-0.0536,-0.0536,0,0,-0.0141,-0.016,-0.0151,-0.0163,-0.0185,-0.0205,-0.0205,-0.0237,-0.0254,-0.0269,-0.0314,-0.0342,-0.0381,-0.0413,-0.0434,-0.0418,-0.047,-0.0426,-0.0388,-0.0434,-0.0433,-0.0433,-0.0488,-0.0493,-0.0421,-0.0421,-0.0421,0,-0.0124,-0.0122,-0.015,-0.0143,-0.015,-0.019,-0.018,-0.0198,-0.0235,-0.0249,-0.0263,-0.033,-0.0364,-0.0392,-0.0385,-0.0405,-0.0445,-0.0404,-0.0426,-0.0427,-0.0428,-0.0485,-0.0492,-0.0417,-0.0418,-0.0418,-0.0419,0,-0.009,-0.0089,-0.0082,-0.0088,-0.0096,-0.0095,-0.0122,-0.0133,-0.0157,-0.0182,-0.0215,-0.0264,-0.0308,-0.0317,-0.0343,-0.0366,-0.0397,-0.0414,-0.0438,-0.0422,-0.0483,-0.0492,-0.0412,-0.0413,-0.0415,-0.0415,0,0,-0.0052,-0.0057,-0.0055,-0.0055,-0.007,-0.0074,-0.0072,-0.0092,-0.0106,-0.0133,-0.0158,-0.0194,-0.0231,-0.0257,-0.0299,-0.033,-0.0368,-0.0366,-0.037,-0.0414,-0.0479,-0.0458,-0.0466,-0.0388,-0.0389,-0.039,-0.052,0,-0.002,0.0001,-0.0009,0.0008,0.0012,-0.0016,-0.0014,-0.0035,-0.0069,-0.0102,-0.015,-0.0188,-0.0206,-0.0233,-0.0263,-0.0353,-0.0386,-0.0331,-0.0495,-0.05,-0.0477,-0.0473,-0.0431,-0.0539,-0.0529,-0.053,-0.0531,0,0.0013,0.0019,0.0042,0.004,0.004,0.0048,0.0025,0.0022,-0.0027,-0.0054,-0.0095,-0.0149,-0.0204,-0.0221,-0.0344,-0.031,-0.0381,-0.0442,-0.0449,-0.0461,-0.0494,-0.0554,-0.0555,-0.0546,-0.0545,-0.0544,-0.0543,0,0.0037,0.0052,0.0068,0.0069,0.0067,0.0071,0.0068,0.0034,0.0025,-0.0035,-0.0055,-0.0134,-0.018,-0.0273,-0.0381,-0.0374,-0.0521,-0.0536,-0.0585,-0.0586,-0.0597,-0.0596,-0.0615,-0.0615,-0.0614,-0.0614,-0.0614,0,0.0066,0.0078,0.008,0.0087,0.0107,0.0095,0.01,0.0082,0.005,0.0043,-0.003,-0.0061,-0.0192,-0.0288,-0.0388,-0.0508,-0.053,-0.058,-0.0613,-0.0569,-0.0564,-0.0607,-0.0604,-0.0619,-0.0618,-0.0617,-0.0616,0,0.0089,0.0089,0.0107,0.0113,0.0118,0.0131,0.0137,0.0135,0.0103,0.0087,0.0072,-0.0023,-0.0137,-0.027,-0.0439,-0.0512,-0.0639,-0.0674,-0.0613,-0.0634,-0.0678,-0.067,-0.0757,-0.0757,-0.0758,-0.0758,-0.0758,0,0.0102,0.0114,0.0131,0.0151,0.0157,0.0173,0.0188,0.0166,0.0163,0.0118,0.0111,0.0004,-0.0038,-0.0277,-0.0444,-0.062,-0.0645,-0.0699,-0.0664,-0.0666,-0.0691,-0.0682,-0.0674,-0.0667,-0.0666,-0.0666,-0.0665,0,0.0131,0.0135,0.0153,0.0192,0.0213,0.024,0.0255,0.0253,0.0232,0.0232,0.0213,0.018,-0.0021,-0.0175,-0.0409,-0.053,-0.0666,-0.0693,-0.0733,-0.0615,-0.0585,-0.0607,-0.0602,-0.0661,-0.0661,-0.0661,-0.0662,-0.0662,0.0154,0.0167,0.0195,0.0231,0.0277,0.031,0.0307,0.0336,0.0354,0.0363,0.0317,0.031,0.0106,-0.0151,-0.0374,-0.0613,-0.0617,-0.0688,-0.0688,-0.069,-0.0633,-0.0603,-0.0673,-0.0674,-0.0674,-0.0674,-0.0675,0,0.0161,0.0184,0.0232,0.027,0.032,0.0344,0.0358,0.0363,0.0397,0.0466,0.0485,0.0351,0.0179,-0.0059,-0.0384,-0.0587,-0.061,-0.0661,-0.0638,-0.0641,-0.0644,-0.0584,-0.0612,-0.0613,-0.0613,-0.0613,0,0,0.0161,0.019,0.0209,0.029,0.0339,0.0368,0.0368,0.0425,0.0472,0.0555,0.0592,0.0577,0.0291,0.0076,-0.022,-0.0408,-0.0479,-0.0453,-0.0481,-0.0423,-0.0423,-0.0639,-0.0548,0,0,0,0,0]}],[{"header":{"parameterUnit":"m.s-1","parameterCategory":2,"la1":30.2991,"la2":30.254,"lo1":-89.0895,"lo2":-89.0444,"dy":0.0017,"dx":0.0017,"nx":28,"ny":28,"refTime":"2025-01-24T09:00:00:Z","depth":"4","parameterNumber":2,"parameterNumberName":"U-component_of_CURRENTS"},"data":[0,0,0,0,0,0,0,0,0,0,0,0,0,0,0,0,0,0,0,0,0,0,0,0,0,0,0,0,0,0,0,0,0,0,0,0,0,0,0,0,0,0,0,0,0,0,0,0,0,0,0,0,0,0,0,0,0,0,0.0917,0.0918,0,0.0981,0.0982,0.0983,0.1031,0.1031,0.1032,0.1032,0.1101,0.1102,0.1103,0,0,0,0,0,0,0,0,0,0,0,0,0,0.0831,0.0832,0.0917,0.0918,0.0919,0.0981,0.0982,0.0983,0.1031,0.1031,0.1032,0.1032,0.11,0.1102,0.1104,0,0,0,0,0,0,0,0,0,0,0,0,0,0.0878,0.0832,0.0917,0.0951,0.0954,0.0981,0.0982,0.0983,0.1031,0.1031,0.1032,0.1033,0.11,0.1102,0.1104,0.1101,0,0,0.111,0.1111,0,0,0,0,0,0,0,0,0.0875,0.0881,0.0945,0.0948,0.0953,0.1,0.0977,0.1023,0.103,0.1001,0.1032,0.1033,0.1067,0.1072,0.1081,0.1104,0.1107,0.111,0.1111,0.1112,0.1113,0,0,0,0,0,0,0,0.0872,0.0879,0.0941,0.0946,0.095,0.0961,0.0969,0.0986,0.1028,0.1003,0.1007,0.1016,0.107,0.1079,0.1083,0.1108,0.111,0.1112,0.1113,0.1114,0.1196,0.1196,0,0,0,0,0,0,0.0865,0.0875,0.0939,0.0944,0.0916,0.0962,0.0971,0.0983,0.1028,0.1036,0.1015,0.1018,0.1075,0.1081,0.1086,0.1145,0.1112,0.1114,0.1115,0.1195,0.1196,0.1197,0,0,0,0,0,0,0.0863,0.0871,0.0937,0.0911,0.0921,0.0963,0.0976,0.0984,0.1016,0.1037,0.1045,0.1042,0.1076,0.1083,0.1123,0.1146,0.1115,0.1117,0.1193,0.1195,0.1196,0.1225,0,0,0,0,0,0,0.0861,0.087,0.0885,0.0911,0.0922,0.0965,0.0976,0.0985,0.1019,0.1024,0.1062,0.1068,0.1077,0.112,0.1125,0.1148,0.1119,0.1192,0.1194,0.1196,0.1223,0.1227,0.1231,0,0,0,0,0,0.0857,0.0871,0.0885,0.0893,0.0939,0.0966,0.0973,0.1004,0.102,0.1036,0.1066,0.1068,0.1135,0.1123,0.1128,0.1152,0.1191,0.1194,0.1196,0.1221,0.1226,0.1231,0,0,0,0,0,0,0.0842,0.0878,0.0894,0.0919,0.0947,0.0975,0.0995,0.1015,0.1051,0.1063,0.1081,0.1089,0.1132,0.1138,0.1123,0.1181,0.1163,0.1166,0.118,0.1185,0.1189,0.119,0.112,0,0,0,0,0,0.0845,0.0868,0.0899,0.0922,0.0936,0.0969,0.0988,0.1011,0.1041,0.1059,0.1087,0.1116,0.1141,0.116,0.1181,0.1213,0.1221,0.1232,0.1236,0.1239,0.1243,0.1274,0.1281,0.1204,0.1204,0.1204,0,0,0.0845,0.0869,0.0883,0.0921,0.0946,0.0971,0.0983,0.1018,0.1046,0.1059,0.1112,0.1132,0.1152,0.119,0.1209,0.1201,0.1267,0.1242,0.1244,0.1247,0.1277,0.1284,0.1291,0.1205,0.1205,0.1205,0,0,0.0851,0.088,0.0899,0.0924,0.0965,0.0985,0.0999,0.104,0.1068,0.1113,0.113,0.1165,0.1207,0.1226,0.1239,0.1277,0.1285,0.1287,0.1313,0.1342,0.1348,0.1354,0.1379,0.1387,0.1291,0.1292,0.1292,0,0.0851,0.0882,0.0908,0.0934,0.0958,0.0993,0.1019,0.1049,0.1101,0.1126,0.1135,0.1207,0.1222,0.1267,0.1282,0.1286,0.1305,0.1292,0.1347,0.1353,0.1359,0.1382,0.139,0.1293,0.1293,0.1293,0.1293,0,0.0868,0.0899,0.0913,0.0957,0.0985,0.1014,0.1055,0.1093,0.113,0.116,0.1221,0.1247,0.129,0.13,0.1304,0.1354,0.1356,0.1347,0.1333,0.1368,0.1391,0.1399,0.1296,0.1295,0.1294,0.1294,0,0,0.0849,0.0912,0.092,0.0944,0.1002,0.1023,0.1076,0.1127,0.1166,0.1218,0.1269,0.1313,0.1335,0.1351,0.1366,0.1391,0.1443,0.1391,0.1392,0.1413,0.1515,0.1439,0.144,0.145,0.1451,0.1452,0.1517,0,0.0857,0.0898,0.0936,0.0982,0.1003,0.1056,0.1101,0.1154,0.1202,0.1259,0.13,0.1349,0.1352,0.1379,0.1409,0.1433,0.1466,0.1427,0.1481,0.1482,0.1408,0.1447,0.1457,0.1523,0.1525,0.1526,0.1527,0,0.0861,0.0888,0.093,0.0993,0.101,0.1047,0.1123,0.1169,0.125,0.1291,0.1351,0.1385,0.1442,0.1434,0.1505,0.1484,0.1508,0.1522,0.1524,0.1447,0.142,0.1481,0.1541,0.154,0.1539,0.1538,0.1537,0,0.0821,0.0885,0.0918,0.0939,0.1014,0.1052,0.11,0.118,0.1239,0.1313,0.1363,0.1426,0.1479,0.1511,0.1547,0.1537,0.1615,0.1599,0.1556,0.1551,0.1587,0.158,0.1654,0.1654,0.1654,0.1653,0.1653,0,0.0805,0.0832,0.0904,0.0919,0.0971,0.1031,0.1103,0.1155,0.1257,0.1323,0.1379,0.1433,0.1506,0.1558,0.1569,0.1586,0.1637,0.1569,0.1565,0.1598,0.1592,0.1593,0.1585,0.1656,0.1655,0.1655,0.1654,0,0.0757,0.0804,0.0842,0.0921,0.0953,0.0988,0.1115,0.1167,0.1257,0.1347,0.1378,0.1476,0.1532,0.1586,0.1645,0.1618,0.1628,0.1624,0.1663,0.1659,0.1542,0.1535,0.1582,0.158,0.1578,0.1577,0.1575,0,0.0736,0.0748,0.0832,0.0867,0.0909,0.0983,0.1042,0.1154,0.1209,0.1355,0.1383,0.1489,0.1539,0.1552,0.1609,0.1632,0.1621,0.1617,0.1573,0.1545,0.1537,0.1532,0.1528,0.1573,0.1572,0.1572,0.1571,0,0.0687,0.0723,0.0753,0.0829,0.089,0.0963,0.1047,0.1086,0.1211,0.1308,0.1361,0.1405,0.1476,0.1508,0.1546,0.1554,0.1605,0.1598,0.1602,0.156,0.1534,0.1526,0.1524,0.1565,0.1566,0.1566,0.1567,0,0.0649,0.0662,0.0717,0.0781,0.0867,0.0926,0.0971,0.104,0.1114,0.1259,0.1272,0.1367,0.1457,0.1471,0.1492,0.1505,0.1494,0.1445,0.1456,0.1464,0.1396,0.1343,0.1321,0,0,0,0,0,0.0609,0.0624,0.0675,0.0743,0.0835,0.0888,0.0979,0.1024,0.1131,0.1142,0.1212,0.1261,0.1321,0.1363,0.1358,0.1461,0.1504,0.145,0.1453,0.1531,0.1538,0.147,0,0,0,0,0,0,0.0574,0.0614,0.0645,0.0716,0.0765,0.0853,0.0907,0.0969,0.0972,0.1079,0.1104,0.1199,0.1259,0.1315,0.1338,0.1357,0.1338,0.1518,0.1515,0.1526,0.1533,0.1539,0.1471,0,0,0,0,0]},{"header":{"parameterUnit":"m.s-1","parameterCategory":2,"la1":30.2991,"la2":30.254,"lo1":-89.0895,"lo2":-89.0444,"dy":0.0017,"dx":0.0017,"nx":28,"ny":28,"refTime":"2025-01-24T09:00:00:Z","depth":"4","parameterNumber":3,"parameterNumberName":"V-component_of_CURRENTS"},"data":[0,0,0,0,0,0,0,0,0,0,0,0,0,0,0,0,0,0,0,0,0,0,0,0,0,0,0,0,0,0,0,0,0,0,0,0,0,0,0,0,0,0,0,0,0,0,0,0,0,0,0,0,0,0,0,0,0,0,-0.0058,-0.0058,0,-0.0098,-0.0098,-0.0098,-0.012,-0.012,-0.012,-0.012,-0.0181,-0.0183,-0.0184,0,0,0,0,0,0,0,0,0,0,0,0,0,-0.0023,-0.0023,-0.0058,-0.0058,-0.0059,-0.0097,-0.0098,-0.0099,-0.012,-0.012,-0.012,-0.012,-0.0181,-0.0183,-0.0184,0,0,0,0,0,0,0,0,0,0,0,0,0,-0.0048,-0.0023,-0.0058,-0.0074,-0.0075,-0.0097,-0.0098,-0.0099,-0.012,-0.012,-0.012,-0.012,-0.018,-0.0182,-0.0185,-0.02,0,0,-0.0192,-0.0193,0,0,0,0,0,0,0,0,-0.0047,-0.0049,-0.0071,-0.0073,-0.0075,-0.0103,-0.0108,-0.0133,-0.012,-0.0103,-0.012,-0.012,-0.0157,-0.0161,-0.0169,-0.0202,-0.0205,-0.0192,-0.0194,-0.0195,-0.0196,0,0,0,0,0,0,0,-0.0045,-0.0048,-0.0074,-0.0071,-0.0074,-0.0086,-0.009,-0.0113,-0.013,-0.0105,-0.0106,-0.011,-0.0158,-0.0166,-0.0171,-0.0206,-0.0192,-0.0195,-0.0196,-0.0197,-0.0274,-0.0274,0,0,0,0,0,0,-0.0038,-0.0046,-0.0073,-0.0075,-0.006,-0.0087,-0.0091,-0.0094,-0.013,-0.0135,-0.011,-0.0111,-0.0162,-0.0168,-0.0173,-0.0209,-0.0195,-0.0197,-0.0199,-0.0273,-0.0274,-0.0275,0,0,0,0,0,0,-0.0037,-0.004,-0.0071,-0.0061,-0.0066,-0.0087,-0.0091,-0.0095,-0.0107,-0.0133,-0.0139,-0.0118,-0.0163,-0.0169,-0.0198,-0.0211,-0.0198,-0.0201,-0.0273,-0.0274,-0.0274,-0.027,0,0,0,0,0,0,-0.0036,-0.0039,-0.0042,-0.0061,-0.0066,-0.0086,-0.0091,-0.0096,-0.0109,-0.011,-0.0142,-0.0147,-0.0163,-0.0194,-0.02,-0.0214,-0.0202,-0.0272,-0.0273,-0.0274,-0.027,-0.0271,-0.0272,0,0,0,0,0,-0.0035,-0.004,-0.0042,-0.0045,-0.0068,-0.0087,-0.0091,-0.0106,-0.0109,-0.0116,-0.0138,-0.0147,-0.0205,-0.0197,-0.0204,-0.0218,-0.0271,-0.0273,-0.0274,-0.0269,-0.0271,-0.0272,0,0,0,0,0,0,-0.0029,-0.0043,-0.0046,-0.0055,-0.007,-0.009,-0.0099,-0.0107,-0.0129,-0.0132,-0.0154,-0.0162,-0.0192,-0.0205,-0.0195,-0.0244,-0.024,-0.0243,-0.0234,-0.0236,-0.0237,-0.0216,-0.0204,0,0,0,0,0,-0.0027,-0.0034,-0.0049,-0.0057,-0.0063,-0.0081,-0.009,-0.01,-0.012,-0.0129,-0.0151,-0.0176,-0.0203,-0.0218,-0.0242,-0.0269,-0.027,-0.0283,-0.0284,-0.0285,-0.0273,-0.0286,-0.0287,-0.0279,-0.0279,-0.0279,0,0,-0.0028,-0.0036,-0.0041,-0.0056,-0.0069,-0.0078,-0.0087,-0.0102,-0.0111,-0.0133,-0.0156,-0.0182,-0.0211,-0.0241,-0.0255,-0.0254,-0.0291,-0.0287,-0.0287,-0.0274,-0.0287,-0.0288,-0.0289,-0.028,-0.028,-0.028,0,0,-0.0032,-0.0039,-0.0045,-0.0054,-0.007,-0.008,-0.0083,-0.0105,-0.0116,-0.0141,-0.016,-0.0189,-0.0229,-0.0251,-0.0268,-0.0289,-0.0296,-0.0302,-0.0292,-0.0306,-0.0306,-0.0306,-0.0316,-0.0317,-0.0303,-0.0303,-0.0303,0,-0.0032,-0.0033,-0.005,-0.0056,-0.0056,-0.0079,-0.0077,-0.0099,-0.0128,-0.013,-0.0148,-0.02,-0.0233,-0.0259,-0.0274,-0.0291,-0.0295,-0.0285,-0.0306,-0.0306,-0.0306,-0.0316,-0.0318,-0.0303,-0.0303,-0.0303,-0.0303,0,-0.0037,-0.0036,-0.0041,-0.005,-0.0057,-0.006,-0.0082,-0.0093,-0.0109,-0.0126,-0.0154,-0.0201,-0.0224,-0.0252,-0.0274,-0.0295,-0.0297,-0.0304,-0.0298,-0.0307,-0.0317,-0.0319,-0.0303,-0.0303,-0.0303,-0.0303,0,0,-0.0035,-0.004,-0.004,-0.0022,-0.0045,-0.0041,-0.0062,-0.0069,-0.0065,-0.0113,-0.0112,-0.018,-0.0197,-0.0216,-0.0251,-0.0276,-0.03,-0.0292,-0.0293,-0.0294,-0.0324,-0.0336,-0.0339,-0.0309,-0.0309,-0.031,-0.0333,0,-0.0027,-0.0013,-0.0027,-0.0007,0.0008,-0.001,-0.0016,-0.0031,-0.0054,-0.0066,-0.0117,-0.014,-0.0187,-0.02,-0.0233,-0.028,-0.0302,-0.0293,-0.0322,-0.0323,-0.0326,-0.034,-0.031,-0.0334,-0.0334,-0.0334,-0.0335,0,-0.0019,-0.0003,0.0021,0.0054,0.0057,0.0057,0.0072,0.0059,0.0024,0.0007,-0.0029,-0.007,-0.0121,-0.0159,-0.0233,-0.0222,-0.0269,-0.0309,-0.0311,-0.0319,-0.0336,-0.0324,-0.0337,-0.0337,-0.0337,-0.0337,-0.0336,0,0.0023,0.004,0.0073,0.0078,0.0091,0.0104,0.0107,0.0085,0.008,0.005,0.0037,-0.0016,-0.0058,-0.0112,-0.0213,-0.0217,-0.0291,-0.0303,-0.0354,-0.0355,-0.0337,-0.0337,-0.0344,-0.0344,-0.0344,-0.0344,-0.0344,0,0.0053,0.0083,0.0099,0.012,0.0167,0.0155,0.0181,0.0175,0.0147,0.0139,0.0077,0.0053,-0.0051,-0.0116,-0.0186,-0.0277,-0.0268,-0.0348,-0.0361,-0.0337,-0.0337,-0.0339,-0.0338,-0.0345,-0.0345,-0.0344,-0.0344,0,0.0094,0.0099,0.0148,0.0176,0.0187,0.0221,0.0225,0.0227,0.0205,0.0188,0.0177,0.0095,0.0012,-0.009,-0.0192,-0.0253,-0.0327,-0.036,-0.0324,-0.0335,-0.0385,-0.0384,-0.0405,-0.0405,-0.0406,-0.0406,-0.0407,0,0.0116,0.0142,0.0193,0.0212,0.0224,0.0259,0.0264,0.0257,0.0245,0.0212,0.0197,0.0116,0.0052,-0.0082,-0.0194,-0.0315,-0.0344,-0.0376,-0.0387,-0.0381,-0.0391,-0.0389,-0.0387,-0.0408,-0.0408,-0.0408,-0.0408,0,0.0154,0.0168,0.0202,0.0235,0.0255,0.0286,0.0292,0.0296,0.0272,0.0262,0.0225,0.0145,0.0042,-0.0075,-0.0184,-0.0272,-0.0348,-0.0382,-0.0381,-0.0392,-0.0384,-0.0394,-0.0391,-0.041,-0.0409,-0.0409,-0.0409,0,0.0168,0.0192,0.0207,0.0234,0.0262,0.027,0.0303,0.0287,0.0285,0.0255,0.0249,0.0151,0.0094,-0.0053,-0.0144,-0.0242,-0.0269,-0.0294,-0.0298,-0.0298,-0.0271,-0.0246,-0.0237,0,0,0,0,0,0.0157,0.0149,0.0188,0.0205,0.0235,0.0241,0.0276,0.0296,0.0295,0.028,0.0266,0.0184,0.004,-0.0023,-0.0121,-0.018,-0.0308,-0.0301,-0.0343,-0.0419,-0.0417,-0.0407,0,0,0,0,0,0,0.0134,0.0154,0.0165,0.0152,0.016,0.018,0.0208,0.0232,0.0229,0.0237,0.0171,0.0148,0.0011,0.0088,-0.0131,-0.0163,-0.0203,-0.0365,-0.0367,-0.0421,-0.0419,-0.0417,-0.0406,0,0,0,0,0]}]]